VIA003 SVMI-SVMG

Flight info

Callsign VIA003
Flight time 0h 34m
Altitude 21000
Route OSMAR2 OSMAR W19 DOSRA UW19 CHALO DCT EKONU
Aircraft A20N/M-SDE2E3FGHIJ1RWXY/LB1

Departure

Time 2026-04-22 12:18
Airport Maiquetía Simón Bolívar International Airport (SVMI)

Arrival

Time 2026-04-22 12:53
Airport Del Caribe Santiago Mariño International Airport (SVMG)
Time Latitude Longitude Altitude Speed Heading
2026-04-22 12:09 10.60072 -66.99982 286 ft 0 kts 180°
2026-04-22 12:14 10.60071 -66.99982 286 ft 0 kts 180°
2026-04-22 12:15 10.60050 -66.99981 287 ft 4 kts 168°
2026-04-22 12:15 10.60035 -66.99945 286 ft 8 kts 73°
2026-04-22 12:16 10.60106 -66.99918 284 ft 13 kts 24°
2026-04-22 12:16 10.60136 -66.99812 281 ft 18 kts 88°
2026-04-22 12:16 10.60120 -66.99686 276 ft 18 kts 140°
2026-04-22 12:16 10.60004 -66.99668 280 ft 15 kts 180°
2026-04-22 12:17 10.59910 -66.99661 283 ft 7 kts 144°
2026-04-22 12:17 10.59907 -66.99618 282 ft 0 kts 76°
2026-04-22 12:17 10.59983 -66.99307 266 ft 90 kts 76°
2026-04-22 12:18 10.60202 -66.98423 223 ft 162 kts 76°
2026-04-22 12:18 10.60506 -66.97209 472 ft 196 kts 75°
2026-04-22 12:18 10.60871 -66.95782 941 ft 218 kts 75°
2026-04-22 12:18 10.61246 -66.94257 1621 ft 232 kts 75°
2026-04-22 12:19 10.61717 -66.92630 2228 ft 249 kts 71°
2026-04-22 12:19 10.62250 -66.90942 3035 ft 254 kts 71°
2026-04-22 12:19 10.62791 -66.89243 3755 ft 255 kts 71°
2026-04-22 12:19 10.63338 -66.87525 4351 ft 260 kts 71°
2026-04-22 12:20 10.63897 -66.85756 4949 ft 264 kts 72°
2026-04-22 12:20 10.64461 -66.83962 5531 ft 269 kts 72°
2026-04-22 12:20 10.65023 -66.82165 6099 ft 272 kts 72°
2026-04-22 12:20 10.65600 -66.80316 6651 ft 277 kts 72°
2026-04-22 12:21 10.66186 -66.78434 7204 ft 280 kts 72°
2026-04-22 12:21 10.66775 -66.76547 7747 ft 284 kts 72°
2026-04-22 12:21 10.67370 -66.74638 8270 ft 287 kts 72°
2026-04-22 12:21 10.67979 -66.72682 8789 ft 290 kts 72°
2026-04-22 12:22 10.68586 -66.70734 9291 ft 293 kts 72°
2026-04-22 12:22 10.69208 -66.68735 9781 ft 297 kts 71°
2026-04-22 12:22 10.69829 -66.66737 10248 ft 300 kts 72°
2026-04-22 12:22 10.70467 -66.64687 10478 ft 311 kts 71°
2026-04-22 12:23 10.71131 -66.62553 10676 ft 322 kts 71°
2026-04-22 12:23 10.71816 -66.60352 10856 ft 332 kts 71°
2026-04-22 12:23 10.72515 -66.58105 11211 ft 334 kts 71°
2026-04-22 12:23 10.73206 -66.55878 11927 ft 323 kts 72°
2026-04-22 12:24 10.73831 -66.53741 12660 ft 312 kts 73°
2026-04-22 12:24 10.74412 -66.51679 13391 ft 301 kts 73°
2026-04-22 12:24 10.74970 -66.49686 14137 ft 289 kts 73°
2026-04-22 12:24 10.75507 -66.47768 14874 ft 277 kts 73°
2026-04-22 12:25 10.76026 -66.45921 15431 ft 273 kts 73°
2026-04-22 12:25 10.76548 -66.44071 15837 ft 274 kts 73°
2026-04-22 12:25 10.77081 -66.42181 16308 ft 280 kts 73°
2026-04-22 12:25 10.77626 -66.40251 16674 ft 291 kts 73°
2026-04-22 12:26 10.78197 -66.38230 16930 ft 306 kts 73°
2026-04-22 12:26 10.78797 -66.36108 17183 ft 320 kts 73°
2026-04-22 12:26 10.79435 -66.33849 17427 ft 335 kts 73°
2026-04-22 12:26 10.80092 -66.31524 17666 ft 349 kts 73°
2026-04-22 12:27 10.80769 -66.29121 17894 ft 362 kts 73°
2026-04-22 12:27 10.81477 -66.26613 18112 ft 375 kts 73°
2026-04-22 12:27 10.82203 -66.24038 18325 ft 387 kts 73°
2026-04-22 12:27 10.82953 -66.21375 18541 ft 399 kts 73°
2026-04-22 12:28 10.83731 -66.18617 18898 ft 405 kts 74°
2026-04-22 12:28 10.84504 -66.15867 19365 ft 408 kts 74°
2026-04-22 12:28 10.85285 -66.13088 19838 ft 411 kts 74°
2026-04-22 12:28 10.86068 -66.10302 20300 ft 413 kts 74°
2026-04-22 12:29 10.86856 -66.07496 20746 ft 416 kts 74°
2026-04-22 12:29 10.87650 -66.04668 20948 ft 417 kts 74°
2026-04-22 12:29 10.88442 -66.01842 20950 ft 416 kts 74°
2026-04-22 12:29 10.89165 -65.99012 20957 ft 415 kts 78°
2026-04-22 12:30 10.89886 -65.93185 20960 ft 416 kts 88°
2026-04-22 12:30 10.89935 -65.90261 20962 ft 416 kts 89°
2026-04-22 12:30 10.89951 -65.87329 20959 ft 416 kts 89°
2026-04-22 12:31 10.89963 -65.84366 20958 ft 416 kts 89°
2026-04-22 12:31 10.89977 -65.81438 20959 ft 416 kts 90°
2026-04-22 12:31 10.89992 -65.78518 20958 ft 416 kts 90°
2026-04-22 12:31 10.90009 -65.75586 20958 ft 416 kts 90°
2026-04-22 12:32 10.90027 -65.72613 20958 ft 416 kts 90°
2026-04-22 12:32 10.90063 -65.66760 20956 ft 415 kts 89°
2026-04-22 12:32 10.90080 -65.63827 20957 ft 416 kts 89°
2026-04-22 12:33 10.90097 -65.60891 20963 ft 415 kts 89°
2026-04-22 12:33 10.90114 -65.57960 20960 ft 416 kts 89°
2026-04-22 12:33 10.90133 -65.55026 20961 ft 416 kts 89°
2026-04-22 12:33 10.90151 -65.52077 20954 ft 416 kts 89°
2026-04-22 12:34 10.90169 -65.49169 20735 ft 415 kts 89°
2026-04-22 12:34 10.90186 -65.46224 20498 ft 413 kts 89°
2026-04-22 12:34 10.90203 -65.43327 20264 ft 411 kts 89°
2026-04-22 12:34 10.90220 -65.40434 20029 ft 410 kts 89°
2026-04-22 12:35 10.90235 -65.37523 19795 ft 409 kts 89°
2026-04-22 12:35 10.90251 -65.34655 19561 ft 408 kts 90°
2026-04-22 12:35 10.90266 -65.31779 19330 ft 407 kts 89°
2026-04-22 12:35 10.90281 -65.28880 19090 ft 406 kts 90°
2026-04-22 12:36 10.90295 -65.26026 18856 ft 405 kts 89°
2026-04-22 12:36 10.90309 -65.23175 18625 ft 403 kts 89°
2026-04-22 12:36 10.90322 -65.20354 18385 ft 402 kts 89°
2026-04-22 12:36 10.90335 -65.17499 18112 ft 400 kts 89°
2026-04-22 12:37 10.90349 -65.14696 17800 ft 398 kts 89°
2026-04-22 12:37 10.90362 -65.11916 17401 ft 395 kts 89°
2026-04-22 12:37 10.90376 -65.09115 16940 ft 392 kts 89°
2026-04-22 12:37 10.90389 -65.06368 16428 ft 391 kts 89°
2026-04-22 12:38 10.90402 -65.03619 15882 ft 391 kts 89°
2026-04-22 12:38 10.90414 -65.00849 15307 ft 391 kts 89°
2026-04-22 12:38 10.90426 -64.98071 14733 ft 390 kts 89°
2026-04-22 12:38 10.90436 -64.95313 14187 ft 389 kts 89°
2026-04-22 12:39 10.90447 -64.92594 13646 ft 387 kts 89°
2026-04-22 12:39 10.90467 -64.87178 12587 ft 383 kts 89°
2026-04-22 12:39 10.90476 -64.84470 12062 ft 380 kts 89°
2026-04-22 12:40 10.90485 -64.81805 11529 ft 378 kts 89°
2026-04-22 12:40 10.90494 -64.79128 11006 ft 375 kts 89°
2026-04-22 12:40 10.90503 -64.76504 10656 ft 367 kts 89°
2026-04-22 12:40 10.90511 -64.73975 10495 ft 353 kts 89°
2026-04-22 12:41 10.90518 -64.71505 10338 ft 341 kts 89°
2026-04-22 12:41 10.90526 -64.69152 10175 ft 329 kts 89°
2026-04-22 12:41 10.90532 -64.66859 9980 ft 318 kts 89°
2026-04-22 12:41 10.90537 -64.64659 9785 ft 310 kts 89°
2026-04-22 12:42 10.90519 -64.62460 9413 ft 307 kts 90°
2026-04-22 12:42 10.90462 -64.60300 9059 ft 304 kts 90°
2026-04-22 12:42 10.90398 -64.58168 8731 ft 301 kts 90°
2026-04-22 12:42 10.90335 -64.56055 8397 ft 297 kts 90°
2026-04-22 12:43 10.90276 -64.53962 8065 ft 294 kts 90°
2026-04-22 12:43 10.90218 -64.51904 7745 ft 291 kts 90°
2026-04-22 12:43 10.90162 -64.49870 7418 ft 287 kts 90°
2026-04-22 12:43 10.90107 -64.47858 7101 ft 284 kts 90°
2026-04-22 12:44 10.90052 -64.45865 6787 ft 281 kts 90°
2026-04-22 12:44 10.89997 -64.43861 6454 ft 279 kts 90°
2026-04-22 12:44 10.89943 -64.41918 6139 ft 276 kts 90°
2026-04-22 12:44 10.89891 -64.39986 5831 ft 273 kts 90°
2026-04-22 12:45 10.89838 -64.38073 5526 ft 270 kts 90°
2026-04-22 12:45 10.89784 -64.36149 5210 ft 267 kts 90°
2026-04-22 12:45 10.89732 -64.34274 4910 ft 265 kts 90°
2026-04-22 12:45 10.89681 -64.32433 4623 ft 261 kts 90°
2026-04-22 12:46 10.89629 -64.30585 4321 ft 259 kts 90°
2026-04-22 12:46 10.89578 -64.28759 4021 ft 257 kts 90°
2026-04-22 12:46 10.89528 -64.26966 3713 ft 255 kts 90°
2026-04-22 12:46 10.89478 -64.25166 3406 ft 253 kts 90°
2026-04-22 12:47 10.89429 -64.23397 3100 ft 251 kts 90°
2026-04-22 12:47 10.89380 -64.21645 2966 ft 241 kts 90°
2026-04-22 12:47 10.89306 -64.19988 2948 ft 226 kts 94°
2026-04-22 12:47 10.89126 -64.18456 2920 ft 216 kts 96°
2026-04-22 12:48 10.88930 -64.16949 2868 ft 208 kts 96°
2026-04-22 12:48 10.88743 -64.15528 2748 ft 199 kts 96°
2026-04-22 12:48 10.88566 -64.14183 2712 ft 185 kts 95°
2026-04-22 12:48 10.88410 -64.12924 2544 ft 175 kts 93°
2026-04-22 12:49 10.88386 -64.11714 2315 ft 169 kts 85°
2026-04-22 12:49 10.88502 -64.10559 2184 ft 156 kts 80°
2026-04-22 12:49 10.88664 -64.09528 2162 ft 143 kts 78°
2026-04-22 12:49 10.88847 -64.08547 2189 ft 141 kts 77°
2026-04-22 12:50 10.89050 -64.07537 2072 ft 151 kts 77°
2026-04-22 12:50 10.89268 -64.06477 1782 ft 155 kts 77°
2026-04-22 12:50 10.89483 -64.05420 1563 ft 148 kts 77°
2026-04-22 12:50 10.89681 -64.04442 1348 ft 136 kts 77°
2026-04-22 12:51 10.89871 -64.03507 1176 ft 134 kts 77°
2026-04-22 12:51 10.90064 -64.02568 1012 ft 136 kts 77°
2026-04-22 12:51 10.90258 -64.01616 832 ft 138 kts 77°
2026-04-22 12:51 10.90450 -64.00662 642 ft 139 kts 77°
2026-04-22 12:52 10.90645 -63.99694 442 ft 140 kts 77°
2026-04-22 12:52 10.90841 -63.98710 224 ft 143 kts 77°
2026-04-22 12:52 10.91038 -63.97727 96 ft 139 kts 77°
2026-04-22 12:52 10.91226 -63.96833 87 ft 113 kts 79°
2026-04-22 12:53 10.91348 -63.96239 87 ft 57 kts 79°
2026-04-22 12:53 10.91403 -63.95972 86 ft 30 kts 77°
2026-04-22 12:53 10.91489 -63.95884 87 ft 18 kts 351°
2026-04-22 12:53 10.91580 -63.95952 87 ft 17 kts 264°
2026-04-22 12:54 10.91553 -63.96077 87 ft 18 kts 258°
2026-04-22 12:54 10.91528 -63.96202 87 ft 18 kts 259°
2026-04-22 12:54 10.91504 -63.96330 87 ft 18 kts 257°
2026-04-22 12:54 10.91479 -63.96447 87 ft 14 kts 258°
2026-04-22 12:55 10.91532 -63.96509 87 ft 12 kts 351°
2026-04-22 12:55 10.91566 -63.96577 87 ft 12 kts 261°
2026-04-22 12:55 10.91546 -63.96667 87 ft 13 kts 257°
2026-04-22 12:55 10.91530 -63.96747 87 ft 11 kts 258°
2026-04-22 12:56 10.91515 -63.96823 87 ft 5 kts 259°
2026-04-22 12:56 10.91517 -63.96852 87 ft 4 kts 318°
2026-04-22 12:56 10.91556 -63.96864 87 ft 6 kts 347°
2026-04-22 12:56 10.91580 -63.96869 87 ft 0 kts 348°
2026-04-22 12:57 10.91582 -63.96869 87 ft 0 kts 348°
2026-04-22 12:57 10.91581 -63.96869 87 ft 0 kts 348°